Theta_e
306 300 297 297 298 300 301 301 300 299 298 297 298 297 295 296 297 299 299 299 300 297 297 298 299 299 300 302 304 305 306 305 305 305 305 306 306 307 307 308 309 310 311 317 316 315 314 314 313 313 313 313 314 315 315 315 315 315 315 315 314 315 315 315 314 313 312 313 314 315 313 313 311 310 310 310 310 311 312 313 314 316 316 316 317 318
304 297 298 300 301 302 302 302 300 299 298 297 297 297 295 298 295 299 298 298 300 297 297 299 299 299 300 302 303 304 304 303 304 304 306 306 306 307 308 309 310 311 315 318 314 312 313 312 312 312 312 311 312 313 314 314 314 315 315 314 314 314 314 314 314 313 313 314 314 315 315 316 310 307 308 308 308 309 309 310 311 312 313 314 314 314
297 295 298 301 302 302 301 300 300 298 297 298 296 297 296 297 300 300 298 298 299 297 296 299 297 298 300 301 303 303 303 304 305 306 306 306 307 307 308 309 309 311 312 315 313 312 311 312 311 310 311 311 312 313 313 314 314 314 314 314 314 313 313 313 313 313 313 314 316 317 316 316 310 307 306 308 308 308 307 307 308 308 310 310 309 310
294 297 300 302 302 299 299 299 299 298 298 297 297 295 294 299 294 292 296 298 298 297 295 297 295 297 300 301 302 304 304 304 306 306 307 308 307 307 308 309 309 310 311 311 313 311 309 310 309 309 309 310 311 312 312 313 313 313 313 314 313 313 312 312 313 313 314 315 313 308 311 311 310 306 302 303 303 304 305 304 304 304 307 308 307 308
296 299 301 301 300 299 297 298 297 296 295 299 298 297 296 297 298 295 295 298 299 298 298 296 296 297 300 299 301 305 306 306 306 307 307 308 310 310 312 312 312 309 310 311 312 312 309 309 308 308 309 310 310 311 312 313 313 313 313 313 313 312 311 312 312 312 313 307 306 304 303 303 302 302 303 302 301 302 303 302 302 302 302 304 306 307
297 300 302 299 299 298 298 296 297 298 294 296 300 298 297 297 296 297 298 296 294 294 296 298 290 291 299 301 301 303 305 304 306 305 306 307 308 309 308 309 311 312 312 311 311 312 310 309 309 308 308 309 310 311 313 313 314 313 313 313 313 312 311 311 311 310 308 309 306 303 302 301 301 300 299 301 301 300 300 301 303 301 300 301 302 303
298 299 301 300 298 299 299 297 299 299 295 294 295 300 299 297 298 298 296 296 290 288 296 298 288 286 296 296 299 301 301 301 304 305 306 307 308 308 310 310 310 311 311 311 311 311 310 309 308 308 308 308 309 311 313 314 313 313 313 313 313 312 311 311 311 308 307 307 306 305 305 305 304 303 302 304 304 303 303 303 301 300 298 299 300 300
299 297 299 300 299 299 297 294 300 299 295 293 297 300 298 299 298 298 297 297 294 299 299 296 295 288 289 295 299 300 299 300 301 303 304 306 308 309 309 310 311 311 311 311 310 310 309 310 308 307 308 308 309 311 313 313 313 312 312 312 312 311 310 310 310 307 307 306 306 307 307 307 306 307 305 304 303 302 301 299 298 298 297 296 297 298
298 297 298 298 298 296 295 297 302 301 296 297 297 301 299 297 299 298 297 295 296 294 289 294 297 289 289 296 300 300 297 298 300 302 304 306 309 310 311 310 309 308 308 308 309 309 308 308 308 308 308 309 310 311 312 312 312 312 312 311 312 310 309 309 308 306 306 306 306 307 309 308 309 310 309 305 302 299 297 298 296 295 295 295 295 295
297 300 300 300 298 295 299 297 300 301 296 297 300 300 300 301 300 298 296 295 294 290 287 292 296 288 288 295 297 300 298 298 300 302 304 306 310 311 310 309 308 306 307 308 307 307 308 308 308 308 309 308 309 311 313 312 312 311 311 310 310 309 309 307 306 305 305 305 305 306 308 309 309 305 302 302 299 297 295 296 294 294 294 293 294 294
298 298 299 300 298 299 297 297 297 301 300 300 302 300 299 298 298 296 296 294 290 286 289 296 296 292 286 294 296 296 297 299 301 302 305 308 310 309 308 308 309 306 307 307 307 305 306 306 307 307 307 307 308 311 311 311 310 310 310 310 309 309 309 306 305 305 304 305 305 306 308 308 308 305 301 299 297 296 295 294 292 292 292 294 293 292
298 298 298 300 297 299 300 296 299 299 301 303 299 296 296 294 295 293 291 292 285 284 293 295 295 295 285 291 297 299 302 301 303 301 302 304 306 309 309 306 305 306 306 306 305 304 304 303 304 305 305 306 307 309 310 310 310 310 310 309 308 308 308 306 304 304 304 304 305 306 308 308 307 303 300 300 298 296 295 294 293 292 291 291 291 292
295 296 300 298 299 299 299 297 295 299 299 300 296 295 288 286 288 284 288 284 284 284 289 291 295 292 290 293 298 301 301 302 303 303 303 304 305 311 309 307 307 307 306 306 306 306 304 304 303 303 304 305 307 308 309 309 309 309 309 308 307 306 307 305 303 303 303 303 304 305 306 306 304 302 302 302 299 296 295 294 293 292 291 291 290 291
293 299 298 299 296 299 300 293 292 291 295 295 293 292 287 283 283 281 285 287 287 289 290 291 295 288 293 296 300 300 302 303 304 305 307 307 307 308 311 308 306 306 307 307 307 307 306 305 305 304 304 305 306 308 308 309 308 308 308 307 306 306 306 305 303 302 302 302 303 304 305 305 302 301 300 301 300 297 297 296 294 292 292 291 292 291
286 287 293 297 292 300 299 297 297 295 294 294 299 295 290 288 284 281 284 282 283 286 287 292 287 286 287 293 301 302 303 304 304 305 307 309 309 310 309 310 308 306 306 308 308 307 307 306 305 304 304 305 306 307 308 308 308 308 307 307 306 305 306 304 302 302 302 302 302 303 304 303 301 300 299 299 299 298 298 297 296 294 293 293 293 293
290 290 299 300 300 299 298 301 302 300 297 297 298 300 292 289 294 285 287 286 286 286 285 286 286 292 293 301 302 303 302 302 303 304 305 306 307 309 308 309 308 307 305 306 307 308 307 306 305 305 305 305 306 307 307 307 307 307 306 306 306 305 305 304 302 301 302 302 301 302 303 302 300 299 299 299 300 299 299 297 296 295 295 295 296 295
291 288 297 299 299 298 299 303 301 302 287 294 296 290 294 298 295 289 286 287 285 284 282 290 289 293 298 298 299 300 301 302 304 304 304 305 306 307 308 308 311 308 306 306 307 308 307 305 305 305 305 306 306 307 307 307 307 307 306 306 305 305 305 305 303 302 302 302 301 301 301 300 299 299 299 299 299 300 299 298 296 295 295 295 295 295
289 290 292 296 293 298 297 300 302 299 303 297 289 294 300 302 299 291 284 287 285 281 283 289 286 288 289 286 300 299 298 299 300 302 303 304 306 306 309 309 312 307 307 308 309 309 308 305 304 304 305 306 306 307 307 307 307 307 307 306 305 305 304 305 303 301 301 301 300 300 300 300 299 299 299 300 300 298 297 295 294 295 294 293 294 293
297 287 292 295 297 298 298 298 297 301 299 298 294 304 292 286 285 290 287 280 280 280 283 287 289 289 290 290 296 297 296 298 300 302 302 303 304 305 307 310 308 308 308 308 307 307 306 305 304 304 304 305 306 307 307 307 307 307 307 306 306 305 305 305 303 301 301 301 300 300 299 299 298 298 299 299 297 297 296 294 292 293 294 293 292 291
297 287 290 290 294 296 296 296 288 292 298 300 300 297 301 295 290 287 287 287 286 281 282 283 287 285 294 294 296 296 298 299 301 301 302 303 305 305 307 310 309 308 308 308 308 307 307 306 304 304 303 304 305 306 307 307 307 306 306 306 305 306 306 305 302 301 300 300 299 299 298 297 297 297 297 297 294 293 294 293 292 292 292 292 291 290
293 294 285 290 294 295 288 293 290 294 290 290 291 291 294 292 297 294 294 288 286 283 283 283 282 287 295 299 299 299 300 301 301 302 305 305 306 307 308 310 312 310 308 308 308 308 307 305 304 303 303 304 305 306 307 307 306 306 306 305 305 304 304 304 303 301 301 300 299 298 297 296 296 296 296 296 293 292 292 292 292 292 291 289 288 289
290 291 286 289 288 289 292 298 297 297 296 293 292 290 292 289 287 284 283 294 288 286 283 283 282 289 297 301 301 301 302 304 304 305 306 307 307 308 311 308 307 309 308 309 309 308 306 304 303 302 302 303 304 305 305 306 306 305 305 305 305 304 304 304 303 302 301 300 299 298 297 295 296 296 296 294 292 291 291 290 290 290 289 288 288 288
297 297 290 288 289 291 294 296 297 296 299 299 296 293 296 294 292 288 282 286 287 288 289 288 285 288 302 303 303 302 304 304 305 306 304 306 307 307 307 306 306 307 308 308 307 306 305 304 303 301 301 301 302 303 304 305 305 305 304 304 304 304 303 304 303 302 301 300 299 298 297 296 295 295 293 291 290 290 289 289 290 289 288 288 288 288
294 289 287 288 294 295 295 297 298 298 298 295 296 297 296 292 293 290 290 289 288 288 286 286 283 288 300 304 303 303 303 302 302 302 304 305 306 306 306 305 305 304 305 305 304 303 303 302 302 300 300 300 301 301 303 304 304 304 304 304 304 303 302 303 303 301 300 299 298 297 296 296 296 294 291 290 289 289 288 288 288 288 288 288 287 287
289 290 289 285 285 287 291 293 293 297 295 292 293 296 297 298 297 295 291 293 288 289 288 286 281 287 295 300 300 298 300 300 301 301 302 303 306 307 306 306 305 305 304 303 303 302 301 300 299 300 300 300 300 301 302 303 304 304 304 304 303 303 303 302 302 300 299 297 296 296 295 294 295 292 290 289 288 288 287 287 287 287 287 287 286 287
291 290 287 282 280 279 279 281 283 286 288 292 294 295 296 295 295 292 287 289 285 288 289 287 286 293 298 300 299 300 301 299 303 303 302 303 304 305 307 307 305 305 303 303 303 302 300 300 300 299 299 300 300 300 301 302 303 303 303 303 303 303 302 302 301 299 297 297 296 294 293 293 293 291 289 289 287 287 287 287 286 286 286 286 286 286
288 288 290 288 286 285 287 291 297 296 292 287 290 292 294 296 296 295 292 288 285 288 287 290 291 292 294 297 299 299 299 301 301 302 303 303 303 304 304 306 306 305 305 303 304 303 302 300 299 299 299 299 300 300 301 301 302 302 302 302 302 302 302 301 299 297 297 296 295 294 293 292 291 289 287 287 286 287 286 286 286 286 285 286 285 285
288 287 290 291 291 292 294 295 297 296 292 292 291 291 294 294 293 290 288 286 292 288 284 291 294 290 292 296 298 299 301 301 302 303 304 305 306 307 307 305 301 303 303 304 303 303 302 301 301 299 299 298 299 299 299 300 301 301 301 301 301 301 301 301 298 296 296 295 294 293 292 291 290 288 288 287 286 286 285 285 285 285 285 285 284 284
288 286 292 292 290 293 294 295 297 296 296 295 294 293 292 294 292 288 289 292 293 288 286 292 295 292 294 296 299 300 301 301 302 303 304 305 306 305 303 302 303 304 304 303 302 302 301 301 302 301 299 298 298 297 297 298 299 300 300 300 300 300 299 300 297 296 295 294 293 293 292 291 289 288 288 287 286 285 284 284 284 284 284 284 284 284
289 287 289 289 289 292 293 294 295 294 294 294 295 295 295 294 293 293 292 294 293 291 294 294 294 294 297 298 300 301 303 303 304 305 305 305 304 304 304 304 304 305 305 304 304 303 303 303 303 302 300 298 298 297 297 297 298 298 299 299 300 299 299 298 296 295 294 294 293 292 291 290 289 288 287 287 286 285 285 284 284 284 284 284 283 283
291 287 291 289 286 287 291 293 292 293 293 291 293 294 295 295 295 294 294 294 294 293 294 294 293 293 298 301 301 303 304 304 304 304 304 305 304 304 306 305 306 305 307 307 306 306 306 305 305 303 301 299 299 298 298 298 298 298 298 298 299 299 298 298 295 295 294 293 293 292 290 290 290 288 287 287 287 286 285 284 284 284 284 284 284 283
291 286 289 286 284 285 289 290 291 290 289 288 288 291 292 293 291 293 292 295 293 290 292 292 290 291 297 301 301 302 302 302 302 303 304 304 304 304 304 305 306 306 307 307 307 306 306 306 305 303 301 300 300 299 298 298 298 298 297 298 298 298 298 297 295 294 294 293 293 292 290 289 289 288 287 287 286 285 285 284 284 284 284 284 283 283
288 287 286 286 283 284 288 289 288 288 287 284 285 289 291 293 294 295 297 297 296 296 291 288 289 296 299 300 300 300 301 302 302 302 303 304 304 304 304 304 305 306 306 307 308 307 307 306 305 304 302 301 301 301 300 299 298 297 297 297 297 298 297 296 294 294 293 293 292 291 290 290 288 287 286 287 286 285 285 284 283 283 283 283 283 283
287 287 287 288 282 285 286 287 288 285 278 280 293 296 296 292 293 291 292 294 297 298 294 297 297 299 300 300 300 300 301 301 303 305 306 305 304 304 305 305 305 306 306 307 307 308 309 309 308 305 303 303 302 301 301 299 298 298 298 297 297 296 296 295 294 293 292 292 291 290 290 289 288 287 286 286 285 285 284 284 283 283 283 283 283 282
287 287 287 289 285 284 286 286 284 278 280 291 300 299 299 297 297 295 295 296 297 298 298 297 298 298 300 301 301 302 303 304 305 305 305 305 306 305 305 305 305 306 306 306 307 308 308 308 307 306 304 303 302 302 300 299 298 298 297 296 295 295 294 294 294 293 292 292 291 290 289 288 288 287 286 285 285 284 284 283 283 283 283 283 282 282
288 287 288 287 287 287 285 284 276 278 287 294 295 297 300 299 298 297 294 297 298 298 299 297 298 299 300 301 302 303 303 303 304 304 304 304 306 306 305 305 306 306 306 307 307 307 307 306 305 305 305 305 302 299 299 298 297 296 295 296 294 293 293 293 292 292 292 291 290 289 289 288 288 287 285 285 285 284 283 283 283 283 282 282 282 282
292 289 289 285 289 281 284 284 282 289 288 290 291 293 293 291 293 292 288 293 299 300 300 298 299 300 301 301 302 303 302 302 300 302 304 304 306 306 305 305 306 306 307 307 307 307 307 306 305 305 304 302 300 298 297 297 296 295 294 293 293 292 291 291 291 291 291 289 289 288 288 288 287 286 285 285 284 283 283 282 282 283 282 281 282 281
296 288 289 286 284 287 283 282 283 282 279 285 293 296 300 300 300 300 294 289 298 300 302 300 299 300 301 301 301 301 302 298 296 298 303 304 305 306 305 306 306 306 306 306 306 305 304 303 299 298 301 299 297 297 296 295 294 294 292 292 292 291 290 290 290 290 290 290 289 288 288 288 287 286 285 284 283 283 283 283 283 283 282 281 280 280
295 295 290 287 285 286 283 280 280 279 282 291 293 297 300 301 301 300 292 287 295 297 300 301 300 301 301 300 301 301 297 293 293 298 303 304 304 304 304 304 304 304 304 304 303 302 300 299 299 296 295 296 294 294 294 293 292 292 290 291 290 290 290 289 290 290 290 290 289 288 288 287 287 286 285 284 284 283 283 283 282 283 282 281 281 280
289 289 288 284 283 285 284 282 280 285 284 290 292 294 297 299 303 295 282 284 295 298 299 299 299 300 300 301 300 299 296 293 295 300 303 300 302 304 303 303 302 301 301 298 296 296 295 294 293 292 292 292 293 292 292 291 291 289 290 290 290 289 289 290 290 290 290 290 289 288 287 286 286 285 284 283 283 283 283 284 283 282 281 281 281 281
286 286 287 283 285 285 284 283 285 286 290 291 291 294 297 303 297 285 280 289 294 298 299 299 299 301 301 300 300 296 299 301 302 304 300 298 298 298 297 295 294 294 295 295 294 290 292 292 293 293 292 293 292 290 290 290 290 289 290 289 289 288 289 290 290 290 290 290 288 287 286 286 285 285 284 284 283 284 283 283 282 282 280 280 280 280
285 286 286 286 283 283 284 282 282 286 292 296 296 296 300 295 284 284 294 298 299 297 300 300 299 301 301 300 300 300 302 303 302 303 302 298 300 299 297 295 293 292 292 290 289 290 291 291 290 290 290 290 290 289 290 289 288 289 289 288 288 289 290 290 290 290 289 287 287 286 286 285 285 285 284 284 284 283 282 283 282 281 280 280 279 278
285 283 282 283 286 286 285 281 281 277 289 298 297 293 297 288 290 296 296 296 297 296 298 298 300 300 301 300 301 302 302 301 300 299 299 299 297 296 295 293 293 293 292 290 289 289 290 290 289 289 289 288 289 289 288 288 287 287 287 287 288 289 290 289 289 288 288 287 286 285 285 285 284 284 284 283 283 282 281 282 281 280 280 279 278 278
290 283 284 285 288 282 282 280 281 289 293 298 297 290 294 296 298 296 295 294 296 295 293 294 296 297 297 297 297 297 297 297 298 299 299 298 296 296 294 294 293 293 293 292 291 290 287 289 289 288 287 287 288 288 288 287 286 286 286 287 289 288 288 288 287 287 286 285 285 285 284 284 284 284 283 283 282 282 281 280 280 280 279 279 278 277
290 286 288 284 289 286 284 287 291 291 293 296 297 296 296 297 296 294 294 293 293 294 293 292 294 295 295 295 295 296 296 296 296 297 295 296 296 295 293 293 292 292 292 290 289 287 287 289 287 286 286 286 286 287 286 287 286 286 285 287 287 286 286 286 286 285 285 285 284 284 284 284 284 283 283 283 282 281 280 280 279 278 279 278 278 278
290 290 291 288 288 290 290 291 293 292 294 295 297 298 296 295 296 295 295 293 295 295 295 294 294 294 294 294 293 294 295 296 295 296 296 295 295 294 292 291 290 290 290 289 288 286 286 287 286 286 285 285 286 286 286 286 286 285 286 287 286 286 286 285 285 285 284 284 284 284 283 283 283 283 283 282 282 281 281 279 279 279 278 278 278 278
289 288 287 287 288 287 282 293 292 293 295 296 295 296 295 295 295 296 294 296 296 295 295 295 295 294 293 292 292 293 294 294 294 294 294 294 293 293 292 290 289 289 288 287 287 286 285 285 285 285 285 285 285 286 286 286 286 286 286 286 286 286 285 285 285 284 284 283 283 283 283 282 282 282 282 282 282 282 281 280 280 279 279 279 278 278
286 289 285 285 286 285 285 291 292 294 294 295 295 294 294 295 296 296 296 296 295 295 294 294 293 291 292 291 293 293 294 295 294 294 294 294 294 293 293 292 290 289 288 288 287 285 285 285 285 285 285 285 285 285 285 285 285 286 285 285 285 285 285 285 284 284 283 283 283 283 283 282 279 281 281 282 282 281 281 281 281 280 279 279 279 278
286 288 280 285 284 287 290 291 291 291 293 294 295 295 295 295 293 293 293 294 294 293 293 293 294 293 293 293 293 293 292 293 294 295 294 294 294 293 292 292 291 289 288 287 286 285 285 285 285 285 284 285 285 285 285 285 285 285 285 285 285 285 284 284 284 284 283 283 283 282 282 282 281 282 281 281 282 282 282 281 281 280 281 282 282 281
287 282 286 286 282 282 283 287 291 286 285 290 291 292 292 293 292 292 292 292 293 293 293 293 294 295 293 292 292 292 291 292 293 294 293 293 293 292 292 291 290 288 287 286 285 284 285 285 285 285 285 285 285 284 284 284 284 284 284 285 284 284 284 283 283 283 282 282 282 282 282 282 281 282 281 281 281 282 282 280 283 283 282 281 283 283
284 284 285 281 281 281 287 289 291 290 290 291 292 293 293 292 292 290 292 293 293 294 293 292 292 293 293 293 293 290 290 291 292 292 291 292 292 292 291 289 289 288 287 285 284 283 283 284 284 284 284 285 284 284 284 284 283 284 284 284 284 284 284 283 283 283 282 282 282 282 282 282 281 282 281 281 282 281 280 280 281 283 283 283 283 283
Wind_Speed
2 6 6 6 7 9 10 10 2 4 4 4 3 4 4 4 5 6 6 3 1 4 10 11 13 15 14 12 12 13 13 15 15 14 14 13 12 11 11 12 13 13 12 5 8 9 10 11 10 10 10 10 11 12 12 13 12 12 11 10 11 9 9 8 8 9 9 10 10 10 8 8 5 4 3 3 2 2 2 3 3 4 4 2 3 5
4 6 7 9 2 3 3 4 2 2 2 5 4 4 5 3 5 4 3 3 2 4 6 8 10 15 15 13 13 13 14 18 17 16 16 15 14 12 13 14 14 12 5 8 7 9 10 9 11 10 9 11 13 13 13 14 13 13 12 12 11 10 10 10 9 9 10 10 10 9 8 7 5 4 4 4 3 3 2 3 3 3 4 5 4 5
5 8 8 6 6 4 3 2 2 5 4 4 6 3 4 5 4 4 6 3 2 2 7 8 10 15 17 15 14 14 16 17 17 16 15 14 12 12 12 13 13 10 10 9 11 11 10 11 11 10 9 10 12 12 13 13 13 13 12 11 11 10 10 10 10 10 9 9 8 9 9 10 4 3 2 2 3 3 3 3 2 2 4 4 5 6
7 8 10 6 5 6 3 3 4 4 5 5 5 6 5 2 2 3 4 2 4 3 7 10 12 14 18 17 19 18 17 18 18 17 15 12 13 15 15 12 11 12 11 11 10 12 11 12 11 10 10 10 11 11 12 13 14 11 11 11 12 11 10 9 10 10 10 9 4 3 3 3 3 4 3 3 2 2 3 3 2 1 3 4 6 6
8 4 6 3 4 4 5 5 6 5 6 7 7 6 6 3 5 6 2 3 6 6 4 9 11 12 12 12 10 9 10 12 14 13 12 12 13 14 9 9 12 14 12 10 9 9 11 11 12 12 10 9 11 12 12 13 13 10 13 12 12 10 11 9 10 11 8 6 6 4 5 4 5 4 3 2 2 3 3 3 3 3 1 2 4 5
10 5 4 4 3 4 5 6 8 6 8 6 9 9 8 7 9 2 3 7 4 5 5 4 7 5 1 7 7 4 2 8 9 10 11 11 12 10 11 12 10 10 10 10 9 7 10 11 10 11 11 11 11 12 11 12 12 11 10 11 11 9 9 9 11 10 6 8 7 6 6 6 5 5 6 7 7 6 5 6 4 4 2 2 3 3
3 5 4 5 5 5 6 6 6 7 7 7 1 3 9 10 5 4 6 4 4 4 3 3 4 9 2 9 9 9 11 14 12 10 11 11 10 9 8 8 8 7 7 7 8 8 8 9 10 11 12 12 12 11 10 10 11 11 10 11 11 9 8 9 10 10 7 8 8 8 7 6 6 5 4 3 3 5 5 4 5 4 3 2 3 3
5 5 5 4 6 6 6 7 6 9 7 7 3 2 1 3 4 3 2 3 7 6 7 10 7 11 11 10 12 15 17 16 15 11 12 11 9 8 7 6 3 3 3 4 5 6 8 8 10 11 11 11 11 10 10 10 10 11 11 11 11 9 9 9 10 11 10 9 8 9 9 7 7 7 6 7 5 3 3 4 4 3 3 2 1 2
9 9 9 9 8 7 9 3 6 11 8 1 2 2 2 1 1 1 1 4 3 7 8 6 6 4 8 1 12 16 13 14 13 11 12 9 7 2 2 2 2 0 1 2 3 4 6 7 8 8 9 9 10 10 10 10 10 10 10 11 11 10 9 9 12 9 10 8 8 8 9 8 7 7 6 6 5 5 4 5 3 3 3 2 1 2
3 1 6 9 8 8 4 5 3 8 8 3 3 4 5 5 3 2 2 3 4 4 10 6 8 4 16 8 6 7 9 10 9 11 9 4 4 5 4 3 2 1 1 1 2 2 2 3 4 5 6 9 9 9 9 10 10 10 10 11 11 11 9 8 11 9 10 9 7 8 9 12 9 5 5 6 6 5 5 6 5 3 4 3 3 2
2 1 3 2 6 0 7 7 5 5 6 9 7 7 5 3 2 1 1 2 2 6 12 8 11 4 10 8 9 8 8 9 10 6 5 5 5 5 4 4 3 2 2 1 1 1 1 1 2 5 7 8 9 8 10 10 10 10 10 11 12 11 9 8 10 11 10 9 8 8 8 10 9 10 7 6 5 5 6 6 5 5 4 4 4 3
2 3 3 1 3 4 7 7 6 2 6 7 4 5 4 2 2 3 3 2 4 9 1 6 8 9 5 4 6 8 2 5 5 7 0 2 3 5 5 4 4 3 3 2 2 3 4 3 3 4 6 8 9 9 9 9 9 10 10 10 11 11 10 8 9 10 10 8 8 8 9 12 7 8 5 7 7 8 9 8 8 5 4 5 4 4
6 7 3 4 3 6 6 8 5 3 3 3 6 6 4 2 3 4 4 6 8 8 2 2 2 4 16 17 3 4 4 6 8 5 4 5 4 4 6 5 4 3 3 3 3 3 4 5 5 5 6 7 9 9 10 9 9 9 10 11 11 11 11 9 9 10 10 9 8 8 8 6 6 6 7 8 6 7 8 7 7 7 6 5 5 6
4 4 8 5 3 7 8 9 6 4 8 9 9 8 6 7 7 8 8 4 4 2 1 3 1 8 13 13 15 17 12 9 6 2 3 4 5 5 4 6 5 4 4 3 3 3 4 4 5 6 7 7 8 9 9 9 9 8 8 10 10 11 11 11 10 11 11 11 9 8 7 6 6 7 6 6 8 8 6 7 8 8 8 8 10 10
8 6 10 12 6 11 10 11 10 6 12 12 8 10 8 6 5 7 5 7 5 5 3 3 2 5 2 2 4 5 6 9 10 8 5 4 6 5 3 4 6 7 6 4 3 4 5 6 7 7 7 7 8 9 10 9 9 9 8 9 10 11 12 13 11 10 11 10 10 9 8 6 6 6 6 6 5 7 7 7 7 7 5 5 7 9
15 11 5 14 2 18 15 11 8 7 5 8 7 6 8 12 6 10 2 3 2 0 1 4 6 4 7 4 2 1 5 5 6 8 7 9 9 6 6 7 8 7 7 6 5 6 6 7 8 7 8 8 8 10 10 11 10 10 9 9 11 11 12 12 12 10 10 10 9 10 10 9 7 6 5 4 4 5 5 6 7 8 9 7 8 6
3 8 8 5 4 16 12 6 9 8 7 8 7 8 8 7 3 2 1 3 1 2 10 4 7 11 10 19 21 14 9 9 7 5 5 7 10 7 7 11 6 5 6 6 8 7 7 7 7 7 8 8 9 10 11 11 11 12 10 10 12 12 12 13 13 12 10 10 10 11 10 7 8 8 8 7 8 7 7 5 5 3 4 5 6 5
6 2 2 7 7 4 4 3 1 5 2 7 7 8 6 4 5 3 7 2 4 10 7 4 11 13 6 12 6 7 11 12 11 9 11 11 8 8 8 12 5 6 6 7 6 5 6 7 8 8 8 9 10 11 11 12 11 10 10 11 12 12 14 13 12 12 11 10 10 10 10 9 8 7 7 7 7 6 6 5 3 3 3 4 4 5
5 7 5 2 3 5 2 2 2 2 3 3 2 3 7 4 7 8 3 8 9 9 7 10 14 14 14 16 4 4 9 10 11 11 11 10 10 10 13 6 6 7 5 5 6 5 6 7 8 8 8 9 9 10 10 10 11 10 11 11 12 13 13 12 11 11 9 10 8 7 9 10 8 7 7 6 5 6 7 7 6 6 5 3 4 5
4 7 3 2 1 5 5 7 9 10 4 1 1 3 2 2 8 9 9 3 5 11 7 10 11 12 11 12 13 17 15 12 10 11 10 11 10 12 11 3 6 6 6 5 6 6 6 6 7 7 8 9 10 10 10 11 11 12 12 12 11 11 11 12 13 12 11 10 8 7 8 7 7 7 7 7 7 6 6 5 8 7 6 6 5 5
6 7 10 4 3 4 6 9 13 11 11 7 5 9 5 4 3 5 3 7 7 7 9 7 11 9 10 7 12 11 10 10 9 7 6 7 12 9 2 1 2 4 5 6 6 5 5 6 6 6 6 6 7 7 8 9 11 11 11 12 12 13 13 13 12 12 11 10 10 10 11 9 8 8 8 7 6 5 6 6 8 7 6 5 5 6
5 8 10 6 4 9 10 10 12 13 15 14 15 15 15 11 8 8 8 3 0 5 5 6 11 10 13 5 6 7 8 3 1 3 6 8 8 2 1 1 0 2 4 5 5 4 4 5 5 5 5 4 6 7 9 9 9 10 11 10 11 11 11 12 12 11 11 10 9 11 10 10 8 8 8 9 8 8 7 7 8 7 6 7 6 7
7 3 8 8 9 10 5 4 3 4 3 6 10 12 13 11 10 8 11 4 1 4 3 3 8 17 3 6 4 6 3 3 4 2 5 5 5 2 3 0 1 3 4 4 3 5 5 6 6 6 7 7 7 8 9 10 10 10 11 11 11 11 12 11 11 11 11 10 10 10 9 10 10 9 10 9 8 8 8 7 8 8 8 8 7 7
7 2 3 7 4 4 3 3 3 1 2 6 7 2 5 12 13 10 6 2 6 4 7 7 10 14 6 6 4 3 3 2 2 2 5 4 0 3 1 2 2 3 4 2 2 1 2 4 5 6 7 7 7 8 10 10 10 10 10 11 11 12 12 12 11 10 11 10 9 9 8 11 9 11 10 9 9 9 8 7 8 7 8 8 7 8
4 4 7 5 6 3 5 3 5 2 4 5 7 8 6 6 9 5 2 0 6 10 11 8 13 14 0 1 4 3 5 4 5 4 3 4 3 3 2 2 3 4 3 3 3 4 3 3 5 5 6 6 7 8 10 11 10 10 11 11 11 11 12 11 11 10 10 9 10 9 9 11 10 10 10 10 9 10 9 9 8 7 9 8 8 8
4 5 9 9 11 13 11 10 10 8 8 7 8 12 15 16 14 5 8 6 10 7 12 11 13 16 14 5 3 4 5 3 2 2 5 5 5 3 2 2 2 3 4 5 5 5 7 6 5 4 5 6 8 9 10 10 10 10 10 11 11 10 11 11 9 10 10 9 10 9 10 10 11 12 12 11 9 10 10 9 8 9 8 9 9 9
2 1 5 10 12 13 10 2 3 11 8 9 10 15 14 14 15 11 4 8 13 14 13 11 14 20 23 14 4 6 3 5 6 7 6 5 5 3 3 3 3 3 4 7 7 5 3 5 8 8 8 8 9 9 9 9 10 9 9 10 10 10 10 10 9 10 10 9 10 9 10 9 9 8 8 8 9 9 9 10 9 10 10 9 10 10
1 4 9 15 17 16 15 6 1 11 12 15 15 15 15 15 15 13 13 16 17 9 15 15 19 15 23 23 18 16 8 5 7 10 7 2 1 4 4 3 4 5 5 4 5 7 9 8 7 8 9 9 8 8 8 8 8 9 9 9 9 9 9 8 10 10 10 10 10 8 10 9 8 10 11 10 10 10 9 9 9 10 10 9 10 10
2 6 8 9 14 17 17 14 5 7 7 8 14 14 15 17 16 15 17 19 16 13 17 15 12 17 22 25 16 13 14 16 15 13 10 8 4 4 3 4 5 7 7 6 8 8 8 8 9 7 7 9 8 9 10 9 9 8 8 8 9 9 10 9 9 10 10 10 11 10 10 9 8 7 10 10 10 9 9 8 8 8 9 9 9 7
2 8 8 4 10 15 16 15 14 14 10 10 10 12 13 16 18 19 21 21 20 17 16 18 19 21 19 22 16 12 14 15 15 13 12 10 7 7 7 7 8 7 7 10 10 10 10 10 9 10 9 8 10 10 10 10 10 10 10 10 10 10 10 9 10 10 10 11 11 9 10 10 10 10 10 11 11 11 11 10 9 8 9 9 9 9
3 4 5 1 6 14 17 12 7 12 11 13 12 10 9 13 18 21 20 18 16 17 18 20 21 21 21 21 15 16 19 17 16 12 10 9 10 10 10 11 8 8 9 8 10 10 12 13 13 11 9 10 10 11 10 11 10 9 9 10 10 10 10 10 10 10 11 11 11 10 10 11 12 11 12 12 10 10 11 11 9 8 8 8 10 10
4 2 3 3 5 10 14 13 13 10 7 6 7 10 12 15 17 15 14 13 13 16 19 19 17 18 20 11 14 19 18 17 19 15 13 12 13 11 14 14 14 11 11 10 10 10 10 11 13 12 11 10 10 9 10 10 10 9 11 10 10 10 9 10 10 11 11 11 10 10 11 11 12 11 12 12 11 9 8 8 10 10 9 8 8 8
5 3 3 2 6 10 9 2 8 8 8 10 13 20 22 17 11 9 12 16 20 18 14 13 17 16 17 16 13 17 20 18 18 17 14 15 18 18 16 18 18 18 18 17 16 14 14 14 12 11 11 9 10 10 11 9 9 11 11 10 10 8 10 11 10 10 10 10 11 10 10 11 12 12 12 12 10 9 9 10 10 11 10 10 8 7
6 7 5 3 5 2 0 3 3 4 11 9 9 16 15 18 17 17 17 21 19 14 12 13 15 16 20 22 21 18 20 17 17 17 13 12 13 13 14 15 15 17 19 19 19 17 15 12 9 10 12 13 12 13 10 10 11 9 7 8 8 10 10 10 10 10 11 10 10 10 10 11 10 11 11 10 10 10 10 11 12 11 10 9 8 8
10 9 7 6 3 4 2 4 5 10 10 7 2 6 15 19 20 24 25 23 20 17 16 19 22 24 27 24 22 21 20 19 18 20 19 14 10 10 12 13 14 15 17 18 17 15 13 9 5 4 7 10 10 6 6 7 7 6 6 8 9 9 10 10 10 10 10 11 10 10 10 11 12 9 11 10 10 10 11 12 10 9 9 9 10 11
10 10 6 5 3 2 6 7 10 6 2 3 4 6 3 10 16 16 17 20 20 20 18 19 23 25 25 24 23 20 19 19 19 19 21 18 10 11 13 16 18 18 18 15 14 14 11 10 12 12 9 3 4 5 6 6 6 7 7 7 9 9 9 10 10 10 10 10 11 11 11 12 11 10 10 10 10 11 12 11 10 9 8 8 7 7
11 6 7 5 6 9 5 11 14 6 14 11 11 11 8 8 8 11 10 12 17 18 19 20 23 24 23 22 20 18 16 16 15 18 21 13 11 14 17 19 19 18 17 16 15 15 13 10 8 4 2 2 3 5 6 5 7 7 7 8 8 9 9 10 11 11 11 10 10 10 10 11 11 9 10 11 12 12 11 10 10 6 6 8 6 8
12 11 8 9 7 8 11 13 10 9 13 11 16 18 8 10 11 10 10 12 9 13 18 21 22 23 22 19 16 16 14 11 12 16 18 8 12 13 13 14 16 16 15 14 12 9 4 1 1 1 1 2 3 4 5 6 7 7 7 7 7 8 9 10 9 10 10 10 9 9 9 11 11 10 11 12 13 12 10 8 5 7 9 10 10 10
14 13 9 12 9 7 11 12 11 12 9 8 14 10 10 10 12 7 7 12 9 15 15 18 20 21 19 13 13 13 7 8 14 17 17 10 6 6 8 12 13 12 11 9 6 4 1 1 1 1 2 3 4 5 6 7 8 8 7 7 7 8 8 8 9 9 9 9 8 9 9 8 9 9 10 11 11 10 11 10 9 8 9 8 8 9
15 12 10 15 13 11 10 13 14 6 8 8 9 4 3 9 7 4 11 7 12 18 10 10 15 14 9 11 12 11 10 12 16 15 12 4 2 3 7 8 7 5 5 3 3 3 2 2 1 2 4 6 5 5 7 7 7 6 8 8 7 8 9 9 8 7 7 7 8 8 7 7 9 9 10 11 9 9 9 7 6 9 9 8 5 6
10 9 14 16 10 13 16 12 8 7 4 5 4 4 2 3 8 10 14 8 3 2 5 8 9 11 10 12 9 9 11 14 16 17 2 1 3 1 1 2 1 1 2 1 1 3 1 2 3 4 4 3 4 5 6 7 8 8 8 8 8 9 8 7 7 8 8 7 6 6 7 6 8 9 8 9 9 8 7 5 7 8 9 8 7 7
3 4 3 12 12 14 13 16 12 8 2 1 1 3 5 7 7 11 3 2 1 5 2 6 8 8 9 13 11 10 12 14 15 15 12 2 1 0 1 1 2 1 0 0 1 3 4 4 4 3 2 2 4 4 6 5 6 8 7 8 7 7 6 7 7 8 7 5 6 7 7 8 7 8 8 7 7 8 5 5 7 7 8 5 7 9
5 6 4 9 8 9 10 11 10 11 3 11 3 2 2 5 6 7 4 4 3 5 8 8 7 7 9 11 12 12 10 9 9 8 8 5 2 4 6 6 5 5 4 3 2 4 3 3 4 5 5 4 5 5 4 6 7 5 5 6 6 6 6 7 7 7 6 6 7 7 8 8 9 8 7 7 8 9 9 6 7 8 8 9 8 9
7 9 4 4 4 5 8 9 5 1 3 1 10 7 7 11 6 8 9 8 6 4 8 9 7 7 10 9 10 11 11 12 13 11 9 9 8 4 2 3 3 2 2 3 2 4 3 4 3 4 3 3 5 3 4 8 8 6 7 6 7 6 6 7 5 6 6 7 7 8 7 8 8 8 8 9 9 8 8 7 6 6 6 7 7 6
10 12 7 9 3 7 6 4 1 2 2 3 4 3 6 7 6 5 5 3 5 6 4 6 8 9 8 8 9 9 10 11 10 7 6 9 9 6 5 6 6 6 4 5 4 3 3 5 5 3 2 3 3 3 4 4 7 7 8 6 5 6 7 6 7 7 7 8 8 8 8 8 8 9 8 9 10 10 7 7 8 7 6 7 6 6
4 3 6 2 4 5 4 4 2 4 3 5 2 1 2 6 3 1 1 5 4 5 3 5 8 7 9 3 5 11 10 9 10 11 10 8 8 8 3 3 5 4 3 2 3 5 3 2 2 3 4 3 3 2 4 4 5 9 6 5 5 6 7 8 9 8 9 8 8 9 9 9 8 8 9 9 8 8 7 9 8 7 8 7 7 6
1 3 2 2 1 2 6 5 11 9 8 7 8 5 2 4 3 1 1 2 6 8 9 7 7 8 9 7 8 10 13 10 8 8 8 8 9 9 7 6 6 7 8 5 6 5 3 4 5 6 7 6 4 4 5 5 4 4 3 5 5 6 7 8 8 9 9 9 7 7 9 9 6 6 7 8 6 6 6 7 7 7 7 8 7 7
3 2 2 1 2 7 6 9 9 8 8 5 6 6 10 8 2 2 4 6 7 8 7 10 7 10 9 7 9 9 12 12 10 11 9 7 8 9 9 8 7 6 5 4 4 6 5 6 8 8 8 6 6 5 6 5 5 4 4 5 6 7 8 8 8 8 7 9 6 5 7 7 9 9 6 7 7 7 7 6 7 8 9 9 9 9
2 6 2 3 2 5 7 8 11 13 10 9 8 4 2 1 4 6 7 8 6 7 10 11 8 8 9 12 12 10 12 15 13 11 10 10 10 9 9 10 8 7 6 5 6 7 9 8 8 8 9 7 4 6 6 5 4 5 7 6 7 8 9 7 7 8 9 7 7 6 6 5 8 6 7 6 6 6 7 8 8 7 6 6 6 8
2 7 6 6 7 6 5 5 2 5 4 6 5 6 6 4 3 6 7 8 9 12 12 11 11 9 7 9 10 9 12 14 14 9 10 10 10 9 9 8 7 5 5 6 4 6 7 7 7 7 7 5 4 6 6 5 5 5 6 7 7 8 9 8 8 7 8 7 6 6 7 5 6 6 7 7 7 7 4 5 8 6 7 6 8 10
10 6 5 7 7 7 6 8 6 7 9 11 12 11 8 4 3 4 8 11 12 11 10 9 11 13 12 11 6 9 13 14 15 11 10 10 10 8 7 7 7 7 8 4 5 7 8 7 5 4 6 5 5 6 6 6 5 6 6 7 7 8 8 9 7 6 6 7 6 8 7 7 7 6 6 6 7 6 6 5 5 6 6 6 10 10
Wind_Direction
15 214 199 208 218 211 210 224 316 49 5 2 318 293 273 278 282 104 102 80 156 278 256 256 263 267 267 267 270 275 277 271 267 254 254 250 247 243 242 243 241 239 242 201 182 175 177 176 178 181 182 186 185 189 188 187 187 187 183 180 183 181 180 183 187 190 192 193 198 204 199 204 187 169 158 169 162 171 160 153 158 165 171 167 179 139
239 228 223 224 233 358 169 108 116 2 323 286 285 280 257 217 267 70 109 148 144 268 281 283 282 274 274 271 270 272 270 267 260 254 247 248 246 243 241 243 241 242 225 147 162 174 173 174 176 177 183 186 185 191 189 190 186 185 184 185 183 181 184 188 195 192 201 202 199 194 195 193 173 159 176 178 169 172 148 154 161 170 162 173 172 144
199 225 230 225 103 104 79 167 207 253 242 229 260 265 275 259 272 114 89 125 155 217 268 286 282 280 280 278 272 262 258 262 261 252 253 256 253 248 245 246 249 244 231 191 197 178 180 176 176 181 189 193 198 190 191 188 184 186 187 187 184 180 181 188 194 201 202 199 201 203 204 198 145 119 88 115 130 143 160 157 157 155 164 153 153 152
230 224 226 113 138 129 131 173 204 210 234 238 219 235 239 44 354 236 106 144 183 237 296 305 294 280 278 270 261 251 242 250 258 259 259 256 256 251 248 248 250 248 243 233 213 186 176 173 178 184 190 194 193 192 189 190 188 187 190 186 186 180 181 187 193 202 204 199 160 62 100 135 122 147 115 93 88 119 146 167 154 169 167 170 161 160
229 61 52 145 140 200 188 184 196 212 233 217 237 242 256 242 247 258 347 280 194 232 309 280 276 261 246 256 262 253 240 243 254 259 258 248 243 250 261 257 247 252 249 243 235 197 168 173 186 189 188 188 192 194 191 189 188 189 192 187 186 177 180 184 188 197 192 118 117 119 84 92 91 84 143 142 170 179 177 159 173 187 169 143 160 159
242 99 117 141 182 200 202 192 209 222 250 225 208 228 250 268 285 270 340 343 281 251 152 292 316 287 177 214 250 282 189 227 228 230 239 236 232 228 236 240 241 238 240 248 245 228 177 181 182 184 184 188 193 195 196 191 191 187 187 184 182 172 175 183 189 186 152 171 162 156 161 170 174 172 180 193 186 175 182 189 168 134 152 125 122 130
267 109 187 166 167 181 213 237 210 217 247 257 245 243 245 258 301 314 305 317 278 291 115 265 308 281 239 264 260 256 258 263 259 238 246 249 249 233 224 234 237 237 237 225 229 232 202 186 180 184 184 189 193 196 188 190 191 187 183 182 179 176 177 179 188 173 175 170 176 175 183 181 186 176 189 180 159 169 176 165 151 149 140 118 146 122
139 180 167 185 184 184 207 223 180 200 232 236 40 318 307 247 228 264 297 267 278 324 269 188 224 274 277 245 240 246 254 263 266 263 259 258 252 239 236 234 244 251 245 239 234 227 227 202 191 190 186 187 192 186 185 186 185 184 182 178 181 181 175 182 188 183 187 186 180 183 184 189 192 191 176 176 159 130 132 138 142 140 143 106 112 133
170 177 189 185 198 203 218 245 161 193 221 43 50 10 87 134 98 137 237 293 316 331 297 168 200 246 261 194 203 216 234 245 251 252 255 252 246 252 161 106 70 336 309 264 233 235 224 220 207 196 185 185 184 184 182 183 181 181 182 182 184 185 179 182 188 179 186 189 185 185 193 195 197 192 178 157 141 144 124 145 129 134 125 111 64 69
355 20 199 203 189 217 121 49 9 180 216 131 147 84 86 82 70 125 301 294 308 310 272 171 183 250 283 270 179 198 215 228 236 245 251 212 133 135 134 107 127 162 203 233 273 272 244 220 201 196 175 176 180 180 179 177 178 182 184 185 186 188 184 177 180 179 189 191 186 190 193 201 193 159 115 133 143 137 143 161 161 141 138 146 157 140
69 171 349 249 222 35 95 63 30 31 58 134 149 114 110 97 133 187 274 279 298 254 264 168 181 205 288 295 179 161 196 208 219 205 155 132 131 118 115 128 141 126 152 155 172 137 118 75 163 170 174 175 174 176 179 181 183 183 185 186 190 191 187 180 182 183 191 191 198 200 199 199 185 180 151 138 139 142 155 164 160 163 161 157 161 135
152 92 183 173 62 117 113 83 50 7 138 164 156 165 158 185 166 219 210 151 234 254 58 139 179 195 232 283 151 178 184 297 262 142 25 244 161 143 142 151 142 152 137 150 164 160 158 141 156 167 178 177 175 176 181 182 182 184 185 185 189 193 196 190 186 183 187 192 196 202 209 211 186 176 159 166 165 167 174 175 171 165 155 158 147 159
209 213 126 100 298 159 156 121 84 108 188 220 174 179 206 225 159 224 176 218 206 244 119 360 141 248 234 244 239 190 264 228 267 299 294 285 287 144 155 155 166 163 175 170 165 165 167 170 169 176 185 179 180 181 184 184 184 187 190 188 190 197 198 196 190 186 186 191 197 200 202 189 164 167 178 186 171 169 175 173 167 168 172 161 167 186
226 141 170 162 115 234 199 170 141 171 195 194 195 183 187 229 227 242 217 223 249 136 98 116 62 253 273 282 250 249 235 229 221 226 244 257 266 264 164 168 174 186 192 179 171 172 176 175 168 172 183 185 185 183 185 185 186 188 192 190 194 201 202 205 202 190 188 192 196 199 197 183 164 181 178 186 188 184 182 177 176 178 179 178 185 180
223 224 214 155 225 164 211 224 180 184 175 200 205 193 205 216 223 237 215 228 219 254 83 195 128 242 242 326 3 276 261 258 274 283 284 256 255 263 217 181 186 194 194 188 195 189 185 182 173 172 180 183 186 183 185 185 189 190 194 195 200 205 201 210 208 197 194 191 194 193 193 183 171 176 174 183 179 173 183 186 184 186 183 188 189 187
215 244 123 173 139 156 192 214 205 145 169 198 214 230 237 235 232 255 319 334 337 344 183 184 231 260 230 16 207 339 293 270 254 257 247 257 260 243 259 238 213 194 193 184 215 210 192 182 176 170 177 182 182 185 182 187 186 189 194 198 203 207 209 206 212 206 199 195 193 195 195 190 178 176 175 184 179 180 186 185 184 184 187 190 183 175
107 233 124 121 153 175 186 182 193 174 218 175 169 213 209 31 244 274 120 112 64 296 256 225 259 255 280 273 256 215 197 208 203 220 234 251 257 258 238 254 220 157 169 189 213 205 183 178 182 178 177 180 183 183 186 187 187 188 188 196 202 205 210 210 211 212 200 197 192 196 194 177 175 178 187 189 186 185 190 187 202 190 185 165 169 155
238 168 7 162 187 162 25 331 245 23 354 111 210 206 71 36 11 225 250 183 219 246 259 213 241 273 272 283 46 191 215 234 241 232 237 238 242 248 246 249 188 154 178 203 204 193 179 180 185 181 183 187 187 185 186 187 185 188 190 193 201 202 207 207 201 206 203 196 196 194 191 190 181 181 185 188 183 173 172 178 160 179 185 180 152 143
181 253 172 232 58 113 62 67 234 132 14 291 272 77 167 203 222 210 235 240 245 242 263 241 250 250 244 253 223 176 185 216 221 225 227 232 232 239 247 226 124 157 178 186 199 183 179 184 187 184 185 189 189 189 188 185 184 187 191 196 201 203 205 203 196 202 201 198 194 188 185 190 183 178 187 180 154 159 162 170 176 185 184 120 120 141
174 231 193 356 169 129 154 180 206 197 145 254 340 231 253 292 232 200 199 238 226 251 241 259 256 261 238 249 257 258 254 249 240 233 232 230 233 232 240 182 162 166 178 187 197 196 186 182 184 182 185 186 189 189 189 186 185 189 190 193 199 203 203 200 196 198 199 194 190 176 177 184 175 178 178 179 154 149 161 159 175 180 179 171 153 154
229 166 251 110 305 143 188 198 216 177 170 181 218 223 185 211 23 335 258 217 220 239 247 268 267 260 258 241 253 259 249 253 255 240 231 229 235 245 223 110 154 167 171 186 196 185 174 164 164 170 177 184 189 192 191 194 193 189 189 193 195 199 201 204 200 200 203 192 191 182 186 184 175 181 186 174 156 155 163 165 183 186 178 137 160 158
222 190 229 137 176 205 223 199 211 206 185 184 189 206 202 185 200 216 243 183 214 229 243 257 263 282 270 224 249 263 260 239 176 261 259 252 263 281 106 96 173 186 190 184 173 154 140 143 149 149 158 172 193 198 200 199 194 195 196 194 195 199 202 201 201 199 198 193 191 188 182 178 182 182 186 187 175 182 183 181 184 181 159 168 166 166
204 207 223 200 204 210 194 39 24 27 340 236 214 220 207 210 195 198 223 189 155 237 331 275 289 264 271 121 219 203 170 133 103 239 246 273 287 224 127 311 256 228 198 180 167 166 162 162 161 162 171 181 196 208 213 206 201 197 196 196 198 198 201 200 199 195 196 192 188 190 183 186 192 188 188 174 182 185 184 185 183 173 176 174 166 171
56 207 221 249 232 92 101 124 66 46 281 272 254 293 217 213 207 217 231 194 202 172 219 226 236 264 272 78 77 81 95 59 148 212 251 246 35 325 351 148 215 242 238 153 133 217 159 157 154 159 174 185 195 210 217 215 206 200 195 195 198 201 198 198 197 193 195 191 183 178 172 194 191 188 188 183 188 190 188 184 183 175 181 176 168 172
185 169 217 222 239 224 190 158 221 147 207 241 233 207 231 250 221 215 55 344 237 204 219 214 237 247 214 85 119 185 152 192 205 180 214 259 261 258 244 220 191 183 210 226 205 203 175 178 199 191 181 187 198 211 219 219 212 203 197 192 198 201 198 198 196 192 190 183 175 176 176 188 192 191 185 186 186 190 186 183 179 178 180 173 172 170
203 167 183 201 214 219 217 207 211 188 196 208 225 231 210 210 214 183 225 210 240 230 230 225 246 258 256 118 176 152 180 199 181 194 173 220 250 238 210 189 196 206 207 202 211 199 204 200 196 191 192 200 208 210 216 219 216 210 198 197 193 196 194 194 189 190 185 182 180 177 180 185 191 195 191 186 183 188 186 181 179 181 182 178 176 169
165 328 211 210 220 230 236 42 6 134 149 191 208 212 215 211 215 222 234 227 227 234 240 235 246 259 263 249 177 171 206 234 210 204 208 218 216 220 247 238 222 217 213 213 204 206 218 214 207 198 196 204 207 206 214 217 214 211 204 196 194 193 192 188 185 186 184 181 185 179 186 179 181 174 167 177 181 184 184 182 180 180 185 183 180 175
65 223 224 225 232 245 252 272 193 158 176 201 209 209 206 208 205 210 210 225 226 239 251 238 239 248 261 260 255 266 270 233 237 247 240 128 247 236 218 212 207 216 227 201 207 205 213 222 209 197 198 202 204 203 214 216 218 213 206 198 192 190 189 187 184 186 186 184 186 183 183 180 168 175 182 182 183 189 188 184 182 183 182 182 184 181
144 236 233 241 250 252 257 260 244 258 233 221 215 210 202 205 207 208 221 232 224 223 239 246 236 241 255 264 264 264 273 273 271 263 242 228 203 162 194 221 229 221 205 205 221 223 220 217 215 202 193 202 195 201 209 212 215 210 210 203 198 192 192 187 182 186 185 185 192 195 186 173 160 155 175 181 182 182 184 182 181 182 182 182 184 182
131 237 246 229 256 260 256 251 248 255 254 253 245 235 212 200 206 207 220 226 226 233 244 254 260 256 259 268 266 274 275 272 275 269 256 228 196 207 213 215 218 223 214 211 212 213 215 222 219 204 193 198 201 202 203 207 209 206 201 204 200 195 190 181 184 184 186 191 196 188 176 167 171 175 167 181 185 179 180 179 180 184 185 187 187 183
180 238 200 161 239 255 257 261 262 256 254 254 243 236 229 219 213 211 219 228 232 243 247 251 259 265 258 259 282 276 268 270 273 258 242 233 220 233 235 234 222 221 228 224 212 204 206 206 204 195 185 202 207 204 202 209 208 202 202 205 201 198 190 183 186 190 189 195 192 185 177 178 186 176 181 183 181 180 176 176 177 183 187 189 189 185
178 267 61 160 224 254 255 250 249 253 259 256 256 251 235 226 226 218 221 219 219 227 230 240 250 255 263 267 261 268 271 268 268 254 250 255 252 233 241 244 243 236 234 232 229 227 225 225 220 208 201 203 206 200 200 206 200 191 204 198 198 195 182 187 188 189 194 192 189 186 181 180 182 183 181 176 181 174 171 168 173 180 186 188 187 188
181 177 184 184 232 244 270 178 236 236 237 242 232 231 230 232 237 239 232 225 223 221 229 229 239 250 266 272 267 263 265 266 266 267 256 248 252 250 242 242 247 250 251 252 248 244 240 237 230 213 203 211 212 206 205 194 187 202 202 194 195 180 186 191 187 187 190 189 187 185 182 181 180 181 177 181 172 171 171 174 178 183 185 188 183 176
164 177 212 168 237 248 271 141 165 197 230 230 227 225 215 225 222 231 236 233 231 218 230 237 255 263 263 262 259 262 267 266 270 268 253 244 251 252 248 250 252 253 254 253 254 255 249 241 229 215 215 216 218 220 212 193 201 204 185 181 178 185 192 190 191 188 190 188 189 188 182 179 178 183 167 157 170 171 175 176 184 185 182 176 174 177
184 187 213 186 212 242 149 130 242 230 239 236 155 172 201 215 222 224 234 238 240 237 234 241 246 249 254 261 266 265 268 273 272 272 273 260 246 257 262 259 256 253 252 253 253 253 254 256 247 225 215 221 221 200 167 183 189 170 166 175 182 189 188 191 188 190 190 191 189 184 179 176 182 172 171 173 168 171 177 178 179 177 178 176 178 177
190 187 193 220 182 266 246 228 248 228 223 46 266 226 237 224 222 228 241 240 241 238 232 235 240 246 252 255 258 262 265 270 270 269 268 265 258 263 256 254 253 252 254 254 257 259 261 257 251 252 253 205 157 171 174 180 164 170 185 176 185 185 187 187 191 192 189 188 185 184 177 177 179 175 169 162 165 171 178 181 180 174 170 171 173 177
195 193 193 230 180 230 208 227 240 294 292 267 269 237 173 185 174 198 230 234 227 229 233 239 243 247 249 252 257 264 267 271 278 273 262 262 257 238 242 247 251 252 251 252 252 256 252 252 256 242 190 147 155 160 178 166 161 172 171 178 187 178 181 182 191 193 190 185 180 175 166 166 173 170 166 161 166 177 180 177 177 156 147 167 158 174
203 201 182 214 210 201 230 251 254 243 244 248 236 249 215 185 207 194 216 254 245 230 224 229 238 245 247 248 254 259 262 276 273 268 271 257 245 249 240 248 253 253 254 256 258 263 259 194 97 86 140 165 173 169 153 155 158 168 172 177 177 173 186 189 195 191 190 189 176 166 159 168 174 171 173 174 180 180 180 173 159 165 172 173 174 181
205 211 203 211 226 206 219 230 234 242 239 242 264 250 231 193 205 197 216 245 242 247 233 236 241 242 247 253 252 252 252 252 255 265 278 282 258 231 234 238 245 250 252 261 274 265 216 173 176 164 148 194 196 166 152 153 159 166 169 173 172 179 186 190 194 191 190 182 165 167 165 171 174 171 173 179 181 177 175 175 172 166 170 176 174 179
199 208 204 219 221 221 235 233 236 212 252 243 256 284 145 176 170 130 239 234 231 245 249 248 247 256 264 250 253 255 247 252 261 263 283 34 15 191 213 234 254 272 283 351 21 1 8 54 96 196 206 206 204 149 152 152 162 171 174 176 169 181 194 193 186 180 169 169 167 166 160 166 170 171 171 175 174 174 176 157 142 163 162 168 156 155
211 213 212 218 212 221 224 245 255 253 258 270 265 108 58 136 150 190 224 244 230 98 191 222 237 243 243 253 242 250 238 242 253 268 300 158 95 23 12 28 47 36 351 54 59 66 316 267 242 236 223 210 158 144 157 162 166 180 180 171 176 195 188 173 165 170 170 169 152 154 158 160 167 166 168 170 171 165 164 145 153 156 162 159 151 153
258 229 223 224 227 228 229 234 239 265 231 206 15 104 146 127 219 224 237 112 87 283 218 204 226 223 225 236 242 243 252 253 254 260 261 222 133 93 178 83 202 219 233 24 94 181 195 198 204 203 166 157 143 159 166 168 174 178 170 175 191 182 164 161 164 162 159 146 146 150 151 153 153 160 157 153 147 147 122 117 149 154 154 135 148 156
187 218 196 216 222 227 230 244 244 246 133 230 169 17 188 233 241 254 277 284 266 276 281 273 251 241 218 235 240 254 274 299 320 326 327 320 242 213 205 199 207 215 201 195 210 224 225 214 209 202 187 165 165 173 171 167 174 177 168 185 175 155 152 153 152 143 140 140 142 143 144 147 147 147 143 145 147 147 146 131 143 150 151 151 149 152
160 241 223 231 185 252 225 220 228 307 41 154 165 234 171 215 297 8 6 311 334 6 2 340 332 356 355 340 329 323 312 303 298 290 286 281 273 259 206 201 216 219 213 198 219 188 198 218 197 190 175 176 179 178 171 170 173 174 175 178 158 145 137 137 134 136 138 140 140 139 142 144 144 142 147 150 149 145 129 143 134 139 142 149 147 139
162 228 212 248 163 218 250 262 154 157 201 305 310 331 354 336 5 35 5 329 318 334 22 337 329 336 350 346 322 305 299 289 282 299 306 293 308 308 275 250 236 234 216 200 200 182 189 212 181 168 177 199 188 173 176 181 171 170 181 174 139 142 140 135 134 137 143 144 143 143 142 143 145 148 151 152 149 148 142 134 138 143 143 148 152 151
6 39 31 1 268 329 268 250 311 288 244 249 198 116 28 336 349 104 58 326 302 279 271 257 271 279 295 316 309 304 289 287 302 304 300 295 292 283 260 251 245 253 253 214 189 175 202 184 156 163 187 193 184 177 176 185 174 181 187 145 147 149 142 139 141 146 149 147 147 149 146 144 144 148 152 150 152 148 148 151 154 150 155 158 157 157
358 56 56 193 294 277 267 191 243 282 309 334 328 319 278 192 221 196 218 247 294 298 300 289 268 270 271 254 250 264 280 283 278 266 272 287 281 275 259 240 226 209 210 211 205 164 191 181 185 197 194 196 188 180 179 177 186 183 160 144 146 137 139 143 148 147 147 152 142 139 150 148 141 139 144 151 145 142 143 151 154 148 154 163 162 166
237 177 82 266 236 244 268 317 308 295 281 276 278 297 304 315 341 354 278 276 280 286 277 284 295 288 278 267 258 260 274 279 278 281 273 258 273 285 284 265 229 218 212 209 171 182 193 195 201 201 196 201 194 175 179 178 179 165 147 147 144 143 142 149 154 149 141 150 142 142 149 148 142 142 148 157 156 152 152 156 161 162 170 174 173 170
351 337 244 238 261 277 287 285 289 291 279 271 269 269 259 244 279 283 293 301 296 289 294 292 283 269 277 279 288 280 278 279 277 278 281 282 277 272 273 275 266 235 199 205 200 195 202 198 202 205 203 206 180 179 178 182 168 156 153 154 149 148 150 150 149 149 149 144 140 144 152 139 151 153 150 154 162 165 164 166 166 169 175 181 174 173
204 245 228 244 257 255 256 273 287 292 293 278 283 300 298 284 249 270 288 297 297 301 302 300 299 298 274 267 273 277 270 274 277 280 279 277 277 278 278 277 273 250 232 217 188 205 216 214 209 208 209 206 179 180 181 175 165 157 158 151 153 153 153 151 148 148 153 153 148 146 154 143 155 157 158 160 162 158 140 144 166 167 171 170 182 180
250 251 273 254 253 261 270 273 279 283 285 283 289 286 289 280 244 272 287 295 297 291 285 283 289 297 300 292 269 257 267 270 279 284 283 278 273 269 264 264 264 254 241 205 196 214 217 217 206 209 215 207 174 184 179 173 167 162 159 158 158 160 154 153 148 145 152 158 161 157 159 153 157 161 159 159 160 152 142 143 132 88 99 147 171 174